Regional Weather Roundup
Issued by NWS

Home | Current Version | Previous Version | Graphics & Text | Print | Product List | Glossary On
Versions: 1 2 3 4 5 6 7 8 9 10 11 12 13 14 15 16 17 18 19 20 21 22 23 24 25 26 27 28 29 30 31 32 33 34 35 36 37 38 39 40 41 42 43 44 45 46 47 48 49 50
000
ASUS43 KBIS 040210
RWRND

NORTH DAKOTA REGIONAL WEATHER ROUNDUP
NATIONAL WEATHER SERVICE BISMARCK ND
900 PM CDT TUE MAY 03 2016

NOTE: "FAIR" INDICATES FEW OR NO CLOUDS BELOW 12,000 FEET WITH NO
SIGNIFICANT WEATHER AND/OR OBSTRUCTIONS TO VISIBILITY.


NDZ001>003-009>011-017-040300-
NORTHWEST NORTH DAKOTA

CITY           SKY/WX    TMP DP  RH WIND       PRES   REMARKS
WILLISTON      CLEAR     71  41  33 NE5       30.03S
MINOT          CLEAR     62  28  27 N6        30.02R
MINOT AFB      CLEAR     64  28  26 NE8       30.01R
$$

NDZ018>021-031>035-040>046-040300-
SOUTHWEST NORTH DAKOTA

CITY           SKY/WX    TMP DP  RH WIND       PRES   REMARKS
BISMARCK       CLEAR     65  26  23 N14       30.01R
DICKINSON      CLEAR     63  38  39 NE5       30.04R
GARRISON         N/A     65  30  27 NE8       30.02R
HETTINGER ARPT CLEAR     65  37  35 NE12      30.06R
$$

NDZ004>008-012>016-024-026-027-054-040300-
NORTHEAST NORTH DAKOTA

CITY           SKY/WX    TMP DP  RH WIND       PRES   REMARKS
GRAND FORKS    CLEAR     55  31  39 N17       29.96R
GRND FRKS AFB  CLEAR     54  32  42 NE12      29.97R
DEVILS LAKE    CLEAR     55  28  35 NE13      30.02R
$$

NDZ022-023-025-028>030-036>039-047>053-040300-
SOUTHEAST NORTH DAKOTA

CITY           SKY/WX    TMP DP  RH WIND       PRES   REMARKS
FARGO          CLEAR     60  26  27 N21G26    29.92R
JAMESTOWN      CLEAR     56  24  29 N16       29.97R
$$





USA.gov is the U.S. government's official web portal to all federal, state and local government web resources and services.